Back to catalog

DELTA 1 DEB

AlivePO
NORAD 21469·DEBRIS·🇺🇸 United States

Launched Jun 12, 1975 from Vandenberg Space Force Base

Loading…

Next Passes (next 24 hours)

TLE

FreshSource: Space-Track

Epoch: Sep 14, 2026, 03:51 UTC

1 21469U 75052FD  26257.16057626  .00000281  00000-0  11204-2 0  9997
2 21469  99.6720 135.3840 0364546 125.1019  25.8649 12.75242059642551

Track DELTA 1 DEB in real time with AllMySat

Download on the App Store